Theta_e
331 331 327 329 324 318 316 314 301 308 304 298 299 302 301 308 307 305 304 308 306 319 322 318 317 316 317 317 317 320 328 324 325 315 313 334 347 347 350 349 352 356 355 355 353 352 353 354 354 355 355 354 354 355 355 355 355 355 355 355 355 355 355 354 354 354 354 353 353 352 352 352 351 350 350 350 350 350 349 350 350 350 349 349 348 350 350 349 349 348 347 345 346 347 346 348 348
326 327 323 321 317 315 310 313 303 301 302 299 300 303 304 306 305 304 303 307 312 320 322 320 320 320 324 324 324 323 327 333 335 332 337 343 348 348 350 351 353 353 355 354 351 351 350 354 354 354 354 354 354 354 354 355 354 354 354 355 355 354 354 354 354 353 353 353 352 352 351 350 351 351 350 351 350 349 349 349 350 350 349 349 349 348 349 349 347 346 345 344 346 346 346 349 348
326 318 316 317 316 315 316 311 299 300 298 297 301 303 308 304 304 305 307 311 318 320 321 322 323 322 319 323 318 318 321 335 337 338 337 345 340 343 349 353 354 356 355 354 352 350 349 353 353 354 353 354 354 354 354 354 354 354 354 354 354 354 353 353 353 353 352 352 352 351 351 351 351 351 350 351 349 350 350 350 350 351 350 350 348 347 347 347 345 345 344 344 344 346 347 347 346
320 320 316 315 310 312 307 306 301 299 297 299 301 306 305 305 306 314 315 317 318 318 322 322 318 325 323 315 322 329 328 331 338 339 336 340 341 346 350 352 356 356 354 355 354 352 350 353 353 354 354 354 354 354 354 353 353 354 354 354 354 353 353 353 353 353 352 352 352 352 352 351 351 350 350 351 351 351 351 350 349 347 348 347 346 346 345 345 345 345 345 344 345 345 346 346 345
317 319 318 315 312 308 304 304 302 302 297 300 300 311 311 311 313 314 316 318 318 318 320 323 322 326 334 331 327 322 328 336 337 341 340 344 346 348 351 351 354 356 353 355 354 353 352 353 353 353 353 354 354 354 354 353 353 354 353 354 354 353 353 353 353 353 353 353 352 352 352 351 351 350 350 350 351 351 350 351 350 350 348 347 346 346 345 348 345 345 345 345 345 346 345 344 344
317 317 317 316 309 316 310 302 301 300 304 306 303 306 311 315 315 315 318 316 319 319 320 323 321 320 327 333 336 328 334 329 339 340 343 342 346 349 350 351 352 354 353 355 355 354 352 353 353 352 353 353 353 354 353 353 353 353 353 353 353 353 353 353 353 353 352 352 352 352 352 351 351 350 349 350 350 350 350 350 349 349 348 348 347 346 347 347 346 345 347 345 344 345 344 345 344
314 313 313 311 310 311 302 301 300 301 304 307 305 305 313 315 314 313 316 317 318 318 322 322 327 324 326 331 335 339 343 342 336 342 346 345 347 348 349 350 350 351 354 354 354 352 354 352 352 352 353 353 353 353 353 352 353 353 352 353 353 353 353 353 352 352 352 352 352 352 352 352 351 350 350 350 350 350 349 349 349 348 348 347 346 346 346 345 347 347 346 345 345 345 345 344 344
319 311 312 305 304 304 299 300 301 303 304 306 308 307 310 313 312 311 314 312 314 312 318 326 327 323 327 333 326 337 344 346 345 348 347 346 346 347 349 351 348 349 352 356 356 354 354 351 352 352 353 352 353 353 353 352 352 352 352 352 352 353 353 352 352 352 352 352 351 352 352 351 351 350 350 350 350 350 349 348 347 347 347 346 346 345 345 345 346 345 345 345 345 344 343 344 343
314 312 317 308 301 304 301 300 301 306 306 308 307 309 315 311 311 310 310 313 317 316 320 323 326 319 323 328 327 336 343 347 348 347 347 346 346 346 348 349 349 347 349 354 357 354 353 351 351 352 352 352 352 352 352 353 352 352 353 352 353 353 352 352 352 352 352 352 352 351 352 351 351 350 350 350 350 349 348 348 347 347 346 346 346 345 345 345 345 345 345 345 344 343 342 343 343
311 310 306 303 303 299 300 301 300 303 305 308 307 307 309 311 310 311 310 312 315 316 319 328 326 318 326 325 329 336 341 348 347 346 347 346 346 347 347 346 347 347 347 352 354 352 353 353 351 352 352 352 352 352 352 352 352 352 353 352 352 351 352 352 353 353 352 352 352 352 351 351 351 351 350 350 350 349 348 348 347 347 346 345 345 344 344 345 346 346 344 344 343 342 341 342 343
306 310 310 304 301 298 298 300 302 305 305 308 307 308 310 310 309 309 310 310 317 315 320 327 320 323 323 325 333 344 347 347 346 343 346 345 345 345 347 348 348 348 348 348 350 351 353 353 353 351 352 353 352 352 352 352 352 352 352 351 351 351 352 352 352 352 352 352 352 351 351 351 351 351 350 349 349 348 348 347 347 347 346 345 344 344 345 345 344 344 344 344 343 341 341 341 343
304 306 305 298 299 299 300 300 302 305 306 306 305 308 310 309 309 308 308 307 313 314 318 324 321 326 323 321 332 340 346 345 346 346 345 344 343 345 348 348 349 348 349 347 348 350 351 353 352 353 350 350 351 351 351 352 351 351 352 351 351 352 352 351 352 351 351 351 351 351 350 350 350 350 350 348 349 348 348 347 346 346 346 345 345 344 345 345 344 344 344 344 342 340 341 342 343
305 308 304 300 299 301 302 301 302 303 303 304 305 308 310 308 306 308 309 310 312 313 315 323 325 324 319 321 332 341 339 344 345 346 344 344 345 347 348 348 348 349 349 348 347 346 350 350 352 351 351 347 346 348 348 349 349 351 351 351 351 351 351 352 351 351 350 351 350 350 349 349 348 349 349 348 348 347 347 347 347 346 346 345 344 344 344 344 344 344 343 344 342 340 339 341 342
306 307 306 300 304 301 301 302 303 301 301 306 308 309 309 307 307 309 309 308 309 312 318 324 326 329 324 329 332 332 340 344 345 346 345 345 346 347 348 347 348 347 347 348 346 346 347 348 352 350 349 350 351 346 343 343 344 349 350 351 351 351 351 350 349 350 349 348 347 346 345 346 348 349 349 349 345 348 348 347 347 346 346 346 345 345 345 344 343 344 343 344 342 340 338 340 341
308 310 305 303 301 302 303 299 300 301 301 306 307 308 307 309 310 309 309 308 309 315 321 326 327 323 319 320 325 335 340 344 345 345 345 345 345 347 345 346 347 347 348 349 347 348 344 347 349 350 350 349 351 351 349 346 342 346 348 350 350 349 349 348 349 349 348 346 347 344 344 346 346 346 348 348 349 348 348 347 348 347 346 346 346 345 344 344 344 344 343 343 341 340 339 339 340
310 308 305 300 299 299 301 302 303 301 301 307 307 308 307 308 310 308 310 312 312 318 321 320 326 320 324 319 326 331 344 345 347 347 344 343 344 344 344 345 345 345 347 347 346 347 347 347 349 349 348 349 350 350 349 349 345 345 347 348 348 348 347 348 346 346 346 346 345 345 342 347 345 347 346 348 347 347 346 345 347 346 345 345 346 345 345 344 344 345 344 341 341 340 340 339 339
310 308 301 300 297 300 302 302 302 299 304 307 308 308 305 305 312 312 315 317 312 314 319 323 323 326 322 322 329 339 345 347 345 345 345 342 342 341 343 344 345 345 345 347 347 347 348 347 343 346 348 349 349 350 351 349 347 345 345 346 347 347 347 347 346 344 342 344 345 345 343 347 350 350 348 346 346 348 345 346 344 343 344 345 345 344 345 344 344 344 342 342 341 339 339 340 340
308 302 300 298 301 300 304 303 304 305 304 306 306 307 306 304 309 313 317 313 312 314 315 320 325 325 330 333 339 342 345 345 343 341 340 338 339 339 340 342 342 341 342 344 345 345 347 349 346 346 348 349 349 350 351 350 348 346 348 348 348 348 346 346 348 350 345 349 345 348 347 346 346 346 349 346 348 346 346 346 344 344 344 344 344 344 344 344 344 343 342 341 340 339 338 335 337
304 302 301 298 302 304 307 306 306 304 304 307 307 307 306 306 308 312 311 310 309 309 313 322 322 325 333 337 339 339 342 342 342 341 339 339 338 338 339 341 341 340 338 341 342 344 339 345 345 345 347 349 351 350 351 350 348 348 346 347 348 346 347 346 345 349 348 346 344 347 346 349 345 345 348 346 346 343 347 346 345 344 345 344 344 344 344 344 343 342 341 340 339 339 334 333 335
305 302 299 301 305 306 306 306 305 306 306 305 306 307 306 309 310 317 311 309 310 307 309 318 318 321 326 331 337 340 341 340 342 340 338 338 339 339 339 339 339 339 338 338 337 342 344 341 343 346 347 347 349 348 345 348 351 348 348 346 348 347 348 345 348 347 346 343 346 343 347 344 343 346 343 343 345 345 344 344 344 345 344 345 344 344 344 343 342 341 340 340 340 334 334 333 334
305 302 300 303 306 303 305 306 306 306 307 306 305 307 305 308 309 310 311 309 309 309 313 316 316 320 324 329 333 338 339 339 339 339 339 337 340 341 339 339 338 337 338 338 339 340 340 342 341 341 347 347 347 349 351 347 349 348 348 348 346 346 346 348 349 347 347 346 345 343 341 344 342 343 342 343 344 345 344 346 344 343 343 342 344 340 342 344 342 338 338 336 335 335 334 335 334
305 303 304 305 305 303 306 306 306 306 306 305 306 304 305 309 309 309 311 309 309 311 315 317 321 323 326 329 332 335 336 336 337 336 337 339 339 338 340 340 341 340 339 336 337 339 340 341 339 337 339 345 344 347 348 347 346 349 345 347 348 348 347 347 346 347 345 344 344 345 342 344 344 341 341 343 344 345 343 342 339 340 339 339 340 336 337 344 343 338 337 335 335 335 336 337 335
299 304 304 306 306 303 306 306 305 305 305 305 305 307 308 306 307 309 312 312 316 319 319 322 322 324 332 333 333 335 334 336 334 337 336 336 337 338 339 339 339 336 337 336 338 339 338 338 338 340 338 339 341 343 344 347 346 347 346 344 345 344 345 345 346 344 345 345 345 344 344 343 341 340 339 338 340 342 342 342 341 340 341 340 338 334 338 338 337 338 339 337 335 335 334 336 336
303 300 304 304 305 304 306 305 306 305 305 305 307 308 305 306 304 310 311 315 318 323 326 327 330 333 334 331 334 334 334 335 337 336 336 337 338 338 339 337 337 337 336 337 337 335 338 336 338 336 338 339 340 338 338 338 345 343 343 344 346 344 345 343 344 345 347 345 347 343 344 342 340 342 338 337 337 339 339 340 341 338 339 341 341 338 338 341 339 335 337 339 335 335 333 334 335
301 300 303 304 305 305 306 306 305 306 306 308 307 305 305 307 307 311 312 317 319 320 325 328 327 328 329 331 329 333 335 335 335 334 337 335 338 340 338 338 338 337 332 336 336 334 333 336 335 335 336 337 338 339 338 340 340 341 343 343 341 343 342 341 342 345 347 346 342 344 343 344 341 339 337 337 340 337 342 341 339 342 340 341 342 341 339 338 336 335 335 335 336 335 334 334 334
303 302 304 304 304 305 306 306 306 306 307 307 305 305 307 308 309 309 314 317 319 321 324 329 325 325 326 327 330 333 335 335 334 333 335 335 337 337 336 336 336 335 335 336 334 334 333 333 333 334 334 335 336 337 339 338 339 338 340 342 346 345 346 343 344 342 343 342 343 346 345 343 341 339 340 339 339 340 342 341 340 340 343 342 345 340 340 336 334 334 335 335 333 333 333 333 332
305 303 303 303 304 305 306 305 306 306 306 307 304 304 306 309 307 305 316 318 320 322 323 322 323 324 327 323 330 333 333 333 333 334 334 336 336 336 337 336 334 333 336 335 334 333 336 331 332 332 333 338 332 332 335 338 338 336 336 339 341 342 345 345 344 344 343 343 343 344 344 345 345 344 344 342 342 338 338 343 342 343 341 342 343 340 338 336 337 335 336 334 334 332 330 331 331
305 305 304 304 304 305 306 306 305 306 305 307 306 305 307 308 308 306 313 318 320 321 319 320 321 322 323 327 330 332 332 332 332 334 333 334 333 335 338 335 334 335 334 335 334 336 332 332 330 333 335 338 337 334 334 335 336 334 337 337 339 343 347 345 342 343 342 340 341 342 343 342 344 344 344 343 342 340 341 335 340 340 342 345 342 343 343 338 338 335 334 335 333 334 330 331 333
304 304 299 302 303 302 305 303 304 305 304 307 307 305 303 305 304 310 314 318 318 319 319 318 319 321 322 326 325 331 331 332 333 332 334 336 336 338 337 338 335 334 335 336 335 335 335 335 334 334 335 335 334 335 335 335 336 335 336 337 344 346 345 345 343 343 339 342 341 342 341 342 342 342 344 344 343 341 342 341 340 340 341 344 343 342 339 338 338 335 334 334 332 331 332 331 330
304 303 301 300 301 300 304 305 306 304 306 307 306 296 300 303 307 309 312 316 317 318 318 319 322 319 322 323 328 330 332 332 333 333 335 336 338 338 336 337 337 334 334 336 337 334 337 337 336 338 335 331 337 336 334 334 335 336 337 338 343 345 344 342 342 345 343 343 341 341 343 341 342 345 344 345 343 341 341 341 341 340 341 343 345 343 338 336 337 337 332 330 329 329 329 331 328
299 302 302 298 298 297 304 304 305 302 306 306 306 297 300 304 307 309 311 314 315 315 316 318 320 322 319 327 328 330 331 333 333 335 336 338 338 337 337 337 336 335 333 336 335 335 338 338 339 339 339 336 336 336 330 336 336 333 333 335 337 338 338 339 344 341 339 342 343 343 344 343 343 343 344 344 343 341 339 340 341 341 342 342 342 342 338 336 338 338 332 329 330 329 329 329 329
301 298 295 299 297 299 302 305 304 301 305 307 304 297 300 304 306 309 310 311 313 314 315 316 320 316 324 322 325 329 327 331 331 330 335 336 336 335 335 335 335 334 334 334 335 335 336 340 342 340 338 339 338 338 340 340 336 336 334 332 336 336 332 334 335 338 340 340 340 342 343 342 342 342 342 344 343 343 339 339 341 342 341 341 340 342 340 336 335 337 336 332 330 327 329 330 331
301 298 299 297 298 299 301 303 305 305 304 306 303 298 302 302 307 309 310 310 310 313 314 316 318 321 324 326 321 326 327 328 325 326 330 334 334 333 333 335 335 335 336 335 335 337 336 340 339 338 336 339 340 340 340 340 337 335 335 335 331 332 330 330 333 335 336 341 341 339 342 343 342 342 344 343 343 343 340 340 340 342 341 340 339 341 338 336 336 334 339 336 335 330 329 329 329
297 299 298 300 297 299 298 303 305 305 304 301 304 300 302 303 306 308 309 310 309 309 313 314 316 319 324 321 320 320 325 325 322 323 329 331 332 333 333 335 336 337 337 335 337 337 336 338 336 339 338 340 340 339 340 337 336 334 332 332 334 329 331 331 332 332 333 332 334 335 338 341 342 342 342 342 342 343 341 341 340 341 340 339 341 338 335 336 336 335 335 336 335 335 336 334 333
297 297 297 298 299 300 299 298 302 304 303 301 303 301 302 304 306 306 308 309 309 309 310 314 314 316 320 317 317 319 322 321 322 322 326 331 332 331 332 334 336 338 338 337 339 337 337 337 338 340 338 340 340 340 340 338 336 335 329 328 326 328 331 332 331 330 331 333 333 334 335 336 341 341 341 341 342 340 340 341 340 341 341 337 333 330 333 334 335 337 334 339 341 340 335 334 335
298 300 299 299 297 297 298 302 304 304 302 300 301 300 301 304 305 307 309 309 309 309 311 313 314 314 317 316 316 317 318 322 322 322 325 332 331 333 332 334 338 340 341 339 338 338 338 339 341 339 339 338 339 339 336 331 331 328 326 328 327 329 330 328 331 329 331 330 332 332 333 334 332 335 335 335 336 336 338 340 340 340 339 336 332 332 331 333 333 333 333 332 338 336 336 333 334
301 300 300 299 299 299 301 303 304 306 302 301 302 302 302 303 305 306 308 309 309 308 309 311 313 313 313 314 316 322 321 322 322 322 324 323 332 333 335 338 340 341 341 342 339 338 339 337 339 338 340 338 335 333 330 328 327 326 326 326 324 325 326 328 329 330 330 329 331 330 331 331 332 332 331 331 332 333 334 335 338 340 339 333 332 328 332 332 334 335 335 333 336 335 334 337 337
300 299 298 297 298 297 301 301 304 306 302 299 302 302 302 304 306 307 308 308 307 308 308 310 311 311 312 314 315 317 320 321 322 323 324 327 331 334 335 335 338 337 338 340 338 338 338 338 338 338 338 336 334 333 330 330 328 325 323 325 324 322 321 324 324 328 328 330 330 330 331 330 330 330 328 329 331 330 331 331 332 332 335 333 333 331 331 332 333 333 335 332 335 333 333 335 335
301 298 298 297 298 300 303 303 304 304 303 299 302 300 301 303 305 307 307 307 308 309 309 310 310 310 311 312 314 319 322 321 322 323 324 323 330 333 333 335 336 337 338 337 338 339 338 337 337 338 337 334 333 333 331 328 327 328 327 324 324 324 327 329 327 327 329 325 327 327 327 329 330 328 328 328 328 329 328 329 331 332 332 334 333 332 331 331 332 332 332 329 330 331 331 333 335
300 299 296 295 299 297 295 302 303 304 302 299 301 300 301 304 306 307 309 308 308 310 310 311 312 311 311 311 313 317 321 322 321 321 320 323 328 331 332 333 336 335 336 336 337 338 338 336 337 338 336 333 332 333 331 331 330 330 329 328 326 326 326 329 328 328 326 325 325 327 327 329 329 329 328 327 327 328 329 329 329 330 331 332 333 331 331 332 333 332 331 330 328 324 326 328 330
301 301 298 297 298 299 298 299 303 306 306 305 301 299 299 301 301 303 307 309 308 308 309 310 312 313 313 314 314 317 318 320 322 324 328 327 326 330 330 332 334 334 334 334 337 336 337 335 336 338 335 332 333 331 332 331 329 330 329 330 330 326 325 324 325 323 325 325 326 327 327 329 329 328 328 327 326 326 327 327 328 329 329 330 329 328 331 330 331 330 330 331 329 326 325 327 329
299 302 301 300 301 300 300 302 300 299 298 303 298 291 292 299 300 301 305 306 306 308 307 308 311 312 313 313 315 316 319 320 322 320 325 328 327 329 331 331 331 332 333 335 337 337 337 335 335 337 334 333 332 331 333 331 325 325 323 320 318 319 319 320 320 320 320 323 321 327 328 327 327 327 327 327 326 325 326 326 327 326 326 327 326 327 327 327 328 330 331 332 332 331 328 326 326
296 298 303 302 300 301 301 300 299 294 291 299 304 292 288 298 299 301 303 304 305 307 306 306 307 308 308 309 311 313 316 318 321 322 324 325 329 329 329 330 331 331 333 336 337 337 337 335 335 336 334 332 332 331 333 327 324 324 322 321 319 320 319 321 323 324 324 322 326 326 325 328 327 328 328 327 326 326 326 325 325 325 325 325 325 326 324 326 323 326 329 330 330 329 330 327 324
295 303 302 302 300 299 300 300 299 296 301 302 301 298 292 292 297 301 304 304 304 304 305 306 306 308 308 309 309 311 311 315 316 317 319 321 326 329 330 330 331 331 333 334 337 337 336 334 335 335 333 332 334 331 331 328 326 324 323 323 322 320 320 322 323 325 325 324 323 325 325 325 327 327 327 326 327 326 326 325 325 325 323 324 323 323 324 325 325 325 327 328 328 328 328 325 323
298 303 304 301 301 301 301 300 298 298 297 292 297 300 292 292 297 302 303 301 302 303 305 305 307 308 309 309 309 310 312 313 316 316 318 321 326 329 331 331 332 332 332 334 335 336 336 334 335 336 333 333 332 332 330 327 326 325 324 323 320 322 323 322 323 323 322 324 324 324 325 324 326 327 327 327 326 326 326 326 325 324 323 322 321 321 323 324 325 326 326 326 325 326 326 325 326
303 304 304 303 303 302 301 299 297 297 294 289 294 297 290 291 297 298 301 300 300 302 304 307 307 308 308 309 310 312 312 313 314 315 318 319 323 328 332 332 332 332 333 334 335 335 334 333 334 333 332 332 333 331 330 327 327 326 323 324 321 321 322 320 322 321 323 324 323 324 324 324 324 325 327 325 325 322 321 321 320 319 320 318 318 318 318 319 321 322 323 324 324 324 325 325 324
306 304 301 301 301 300 301 300 298 295 287 290 296 297 294 288 294 297 298 300 302 302 303 306 308 308 309 311 311 310 310 311 312 312 314 317 321 327 330 331 331 332 333 333 334 334 333 332 334 332 332 331 333 331 329 328 327 326 324 324 322 323 322 321 321 321 322 323 322 322 322 323 324 324 324 324 321 320 320 319 319 318 319 320 319 318 319 318 320 321 322 323 324 324 322 322 322
303 300 298 298 297 299 297 296 297 287 286 293 296 297 297 287 292 297 301 304 304 305 304 305 307 307 308 310 309 310 311 312 312 312 313 316 317 321 328 330 331 331 331 331 333 333 331 332 333 331 331 331 332 331 328 328 326 326 326 325 323 324 323 321 323 321 321 323 322 321 322 322 323 323 323 321 321 321 321 319 319 320 319 319 319 319 320 320 321 321 321 322 321 322 323 322 322
301 299 298 291 288 289 286 291 285 286 285 293 296 297 293 292 296 298 301 302 303 305 304 306 306 306 308 307 309 310 310 311 312 313 315 315 316 318 322 328 330 330 328 330 331 332 331 332 331 329 329 331 331 331 327 328 327 326 325 325 324 324 323 321 324 322 323 322 322 321 321 321 322 321 321 321 321 322 322 321 320 319 319 320 320 319 320 320 320 320 321 321 322 321 321 322 320
298 296 295 289 286 284 281 286 287 288 292 296 295 297 290 295 297 302 302 304 305 305 306 307 307 308 308 308 309 310 312 312 312 315 316 318 317 317 321 326 328 329 328 328 330 331 330 331 331 328 329 331 332 331 327 327 327 326 327 326 325 324 322 323 323 323 323 323 323 322 321 321 321 322 321 321 321 322 321 323 323 321 320 319 319 320 320 320 321 318 319 320 319 320 321 320 320
298 300 297 293 291 287 281 285 282 284 287 292 296 291 287 289 294 302 305 305 305 305 305 308 309 309 310 309 310 311 312 314 315 317 317 318 321 322 325 327 327 327 329 329 329 329 329 329 329 327 329 329 330 330 328 327 326 327 327 327 325 325 323 322 322 323 324 322 323 323 322 322 321 323 322 323 321 322 323 323 323 321 319 320 319 320 320 320 320 318 319 321 320 320 320 320 319
299 300 300 294 291 296 287 289 288 289 288 288 292 289 294 296 303 304 305 304 304 305 305 306 307 308 309 309 311 312 313 314 315 317 319 320 322 323 324 324 325 327 327 328 328 329 328 328 329 328 328 328 330 330 328 327 326 327 328 326 327 326 325 324 321 322 324 324 325 324 322 323 323 323 325 324 322 322 323 323 321 321 320 319 320 319 319 318 319 318 318 319 318 319 318 318 318
297 296 292 295 300 296 290 290 295 290 288 285 292 290 296 301 300 303 303 302 303 303 304 305 306 308 310 309 310 312 313 314 315 317 319 321 321 323 323 324 324 325 326 326 327 328 328 327 328 327 327 329 329 330 329 327 327 327 327 327 327 328 328 326 323 323 325 325 325 325 323 322 325 325 325 325 322 322 323 323 321 321 321 320 320 319 319 319 318 318 318 318 318 319 319 318 319
297 292 296 301 303 300 294 286 287 287 283 285 290 287 290 291 287 301 300 300 301 302 302 304 307 308 307 309 311 312 313 315 315 316 319 321 322 322 322 323 324 325 325 326 326 328 329 328 327 327 326 327 328 329 328 328 327 326 327 327 328 328 328 328 326 325 325 326 324 324 324 323 323 324 325 326 323 322 323 322 322 322 321 320 320 319 319 318 319 318 318 319 318 319 317 317 317
297 295 302 293 288 288 294 289 281 282 281 284 287 291 291 292 292 297 298 298 300 301 302 303 304 305 307 309 310 312 314 315 315 315 316 318 320 321 322 323 323 324 325 326 325 326 327 326 326 327 326 328 329 328 327 327 327 327 328 328 328 328 328 328 327 327 328 327 325 323 323 323 324 324 324 326 323 323 322 321 323 322 322 320 320 319 319 318 318 317 317 317 317 318 316 315 316
301 301 297 300 296 292 288 289 291 290 283 283 284 289 286 295 296 298 298 301 301 301 301 302 304 306 308 309 310 311 313 314 313 314 315 316 318 320 320 321 321 323 325 325 326 326 326 326 326 326 326 326 327 326 327 327 327 327 327 328 330 328 327 326 327 327 327 327 326 324 323 324 324 324 325 327 323 323 322 322 321 321 321 321 319 319 318 318 318 318 317 316 317 317 315 314 314
295 295 294 296 296 299 296 296 291 288 284 284 284 283 290 297 301 299 300 302 303 302 301 303 305 307 308 309 310 311 312 312 313 314 315 316 317 318 318 320 320 321 322 323 323 324 324 325 325 325 325 325 324 325 325 326 326 326 326 327 328 329 328 327 327 327 327 327 327 326 323 323 324 325 325 326 323 322 322 322 321 321 321 320 319 319 318 319 318 318 317 317 316 315 314 314 314
297 297 295 295 293 291 287 286 296 293 288 284 283 282 292 301 302 302 301 304 304 303 303 304 305 306 308 309 310 311 311 312 313 313 314 315 316 316 317 317 318 318 319 319 321 322 322 322 322 323 322 323 323 324 324 325 325 325 324 324 325 326 328 328 328 327 327 327 326 324 326 325 323 325 324 325 323 323 322 322 321 320 321 320 319 318 318 318 316 317 317 317 315 314 314 314 314
Wind_Speed
10 9 8 8 7 7 7 7 8 8 8 11 11 9 5 4 0 6 5 1 10 8 4 1 4 3 6 3 4 7 14 11 12 5 4 7 8 9 10 16 15 15 15 15 14 14 13 13 14 14 15 17 15 13 14 14 13 13 12 12 11 11 12 12 12 12 12 13 13 11 11 11 11 10 10 10 9 9 9 9 9 8 7 7 5 5 6 8 9 9 8 8 8 8 8 8 9
8 7 6 6 7 7 6 7 7 8 9 10 12 10 5 5 3 6 10 4 7 5 1 2 2 2 3 5 7 4 13 16 15 12 10 9 11 9 13 16 16 15 15 15 14 14 13 13 13 14 14 15 16 15 15 14 14 13 12 12 11 12 12 12 12 12 12 12 12 12 11 11 10 10 10 9 9 9 9 8 9 10 9 8 8 7 7 8 8 7 7 7 8 8 9 9 9
7 5 6 7 7 8 7 6 9 9 11 11 8 14 7 6 4 5 2 5 4 3 2 1 1 1 3 3 4 7 7 10 13 12 9 12 13 9 12 15 15 15 16 14 14 14 12 13 13 14 14 14 14 16 15 15 14 14 14 12 11 12 12 12 12 12 12 12 12 12 11 10 10 10 10 10 9 8 7 8 9 10 11 10 10 8 7 7 6 6 6 6 7 8 9 8 8
9 7 8 6 6 6 7 6 9 10 10 9 10 8 4 1 3 7 3 3 1 3 1 4 7 5 8 7 3 7 9 8 8 10 9 10 9 12 14 14 16 13 12 12 14 13 12 14 13 13 14 13 14 15 15 15 14 14 14 12 12 12 12 12 12 12 12 12 12 12 11 11 10 10 9 9 8 8 7 6 6 7 7 6 6 5 4 5 6 6 6 6 7 8 9 9 8
8 7 7 8 8 7 7 8 9 9 12 9 10 9 5 3 6 1 5 1 2 4 6 4 3 2 5 8 1 4 5 9 9 8 8 9 13 14 15 16 15 12 12 14 13 13 13 16 14 13 12 13 14 13 13 14 14 13 13 13 12 12 12 11 11 11 11 11 11 11 11 10 10 9 9 9 8 8 8 7 6 6 6 5 5 4 4 3 5 5 6 5 7 9 8 8 8
8 7 7 7 7 7 7 9 9 11 10 10 12 3 3 3 1 3 2 3 1 4 4 5 4 9 6 9 9 6 3 2 10 8 10 10 16 15 14 15 13 11 13 12 13 11 13 15 14 12 12 12 12 12 12 13 13 13 13 13 13 12 11 11 11 11 11 11 10 10 10 10 9 9 9 8 8 8 9 8 7 7 6 6 6 6 5 4 4 4 2 6 7 7 8 8 8
6 6 6 7 9 7 8 10 11 10 11 11 9 9 7 4 4 4 5 4 3 6 4 6 2 8 5 6 8 7 6 7 5 8 8 14 16 15 13 15 14 14 11 11 11 13 16 15 14 13 12 12 11 11 11 11 11 12 12 12 12 11 11 10 10 10 11 10 10 10 10 10 9 9 8 8 8 8 8 8 7 7 7 7 7 6 5 5 6 7 9 9 9 9 9 9 8
8 9 5 8 6 7 9 11 12 10 3 7 5 9 1 4 4 3 1 6 8 9 8 4 7 5 4 8 5 5 6 8 12 11 14 13 15 15 12 12 15 15 14 10 11 13 16 14 14 13 13 12 12 11 11 11 10 10 10 11 11 11 11 11 11 10 10 10 10 10 10 9 9 9 9 8 8 8 8 8 8 7 8 8 7 6 7 7 8 9 10 10 10 10 9 9 8
7 9 4 8 10 7 9 11 12 12 12 4 6 5 4 5 3 5 7 3 4 6 6 7 6 7 3 8 6 3 5 9 12 13 13 13 16 16 9 12 12 13 14 12 11 14 14 14 13 13 13 14 12 11 11 11 11 10 10 10 10 10 11 11 11 10 10 10 10 10 10 9 9 8 8 8 8 8 9 8 7 8 8 7 7 7 7 8 9 10 10 10 10 10 9 10 8
7 7 6 6 6 11 11 10 11 12 9 5 4 6 5 4 6 3 7 6 6 3 6 8 6 6 8 8 8 4 6 9 11 12 13 13 13 13 13 13 12 14 13 14 12 15 12 15 12 13 12 13 13 12 11 12 12 11 11 10 9 9 8 8 8 8 8 8 8 9 9 8 8 9 8 9 9 9 8 8 8 7 7 7 7 7 8 9 11 12 11 10 10 9 9 9 8
8 8 7 9 9 10 11 10 11 11 9 6 7 4 4 0 5 6 4 9 4 7 8 7 9 7 11 11 5 6 8 10 12 13 11 13 13 11 11 13 13 13 13 14 13 13 14 13 15 12 12 11 10 11 11 10 9 8 8 8 7 6 6 6 6 6 6 7 8 8 8 8 8 8 8 9 9 8 8 8 8 8 8 7 7 7 8 10 10 10 11 11 9 7 7 6 7
9 8 7 9 10 9 10 11 14 3 3 2 9 6 5 3 1 6 7 9 5 7 8 9 5 6 9 11 5 6 9 11 12 11 11 12 13 12 11 10 12 12 12 12 13 13 15 14 13 14 12 10 11 11 10 9 9 8 8 8 7 6 7 7 7 7 6 6 7 7 8 7 8 8 8 8 9 8 8 7 7 7 8 8 7 7 8 10 10 10 11 11 9 6 5 4 4
9 7 9 9 9 10 12 12 8 7 7 4 8 10 4 4 7 6 7 9 6 8 8 9 4 8 5 3 6 9 10 12 10 11 11 11 12 10 10 10 11 12 11 12 12 14 15 14 14 13 12 12 7 8 8 7 5 8 8 8 7 7 7 7 7 7 6 6 7 6 7 7 7 7 7 7 9 8 8 8 8 7 8 8 8 8 9 9 9 10 11 10 10 7 5 4 3
9 7 7 10 8 12 10 8 7 9 6 10 10 6 3 4 5 7 7 9 9 9 6 9 6 11 11 8 5 6 9 10 14 12 10 12 11 10 12 10 11 11 12 10 12 12 13 13 13 12 13 10 7 9 8 5 5 5 7 7 7 7 6 7 6 5 5 5 5 4 3 5 6 7 6 6 7 6 6 8 8 7 8 8 9 9 10 9 9 10 9 8 9 8 5 4 3
9 6 8 8 10 10 8 10 10 9 10 8 6 2 1 3 5 6 9 10 11 10 10 9 6 10 6 8 6 6 10 12 11 11 11 11 12 10 12 10 9 10 9 12 8 11 11 13 15 14 12 9 7 7 7 5 4 4 4 6 7 7 5 6 6 5 6 5 3 6 4 5 5 4 5 5 5 7 6 7 5 6 8 8 9 10 10 10 11 11 10 9 8 8 7 5 4
7 6 6 9 10 10 8 10 9 8 7 9 7 1 3 2 6 9 8 11 8 4 4 8 6 3 10 10 11 13 13 13 11 11 10 11 12 10 11 9 8 9 9 8 10 9 10 11 11 12 11 10 8 8 8 7 7 5 4 6 7 7 7 6 6 4 3 3 4 6 2 3 5 6 6 6 4 6 8 6 5 6 7 8 9 9 10 10 11 11 10 9 9 8 8 6 3
6 7 8 9 11 10 7 8 4 8 4 3 8 4 6 5 6 7 6 6 11 6 9 7 9 3 8 8 13 19 14 11 12 13 12 10 9 9 8 7 7 8 7 8 7 7 8 10 13 9 9 11 9 9 7 8 7 7 6 6 7 7 7 7 6 5 4 4 4 7 6 3 3 4 5 5 5 5 4 4 8 7 6 8 9 9 11 11 12 11 10 10 9 9 8 6 4
6 8 8 10 9 11 6 10 7 9 6 6 3 6 5 7 3 2 4 10 12 8 10 8 4 4 9 16 18 18 17 15 14 15 13 12 10 8 8 8 7 7 7 6 7 7 7 5 16 10 8 9 9 8 6 7 8 8 8 7 6 6 7 8 5 4 6 5 5 5 5 4 2 4 4 4 5 4 4 7 7 7 8 8 8 9 10 11 11 10 10 10 9 8 9 5 5
9 8 9 10 9 8 4 5 7 7 6 9 5 3 4 7 4 1 8 10 13 13 11 9 7 10 9 13 17 18 16 15 15 14 15 13 10 11 9 8 8 9 8 7 5 10 9 10 11 12 10 9 9 7 6 7 9 7 7 5 5 5 7 7 6 6 5 4 7 5 6 4 4 1 0 4 3 4 2 7 8 9 9 10 9 8 10 11 10 9 10 10 9 9 7 5 5
10 10 10 10 10 7 1 3 7 6 8 7 5 4 6 4 6 5 9 9 11 15 11 12 11 14 10 11 14 14 15 16 15 15 15 13 11 11 10 10 9 8 8 7 8 5 6 9 13 13 12 10 8 7 6 6 6 7 7 7 6 7 6 6 7 6 5 7 5 3 2 3 3 4 3 7 5 6 4 5 7 9 9 11 11 9 10 10 10 10 10 10 8 8 7 6 6
8 11 10 9 1 7 2 3 4 6 5 6 6 5 9 3 5 5 6 10 11 10 13 12 14 13 15 11 14 13 13 16 18 15 14 13 11 9 9 9 8 8 7 7 6 6 5 5 8 12 12 9 6 6 6 5 6 5 5 6 7 7 6 5 3 3 3 3 2 2 4 2 1 2 3 4 4 3 4 6 7 8 7 8 12 8 8 8 9 8 7 8 7 7 7 5 5
7 9 11 14 6 7 6 6 3 3 4 6 6 8 6 7 9 8 8 10 6 8 11 13 11 17 18 16 15 16 13 15 15 16 13 12 12 10 9 9 8 6 7 6 6 7 6 5 6 7 10 14 10 5 5 7 6 4 4 2 3 3 5 5 5 5 5 4 4 3 2 1 3 2 2 2 2 4 6 6 8 7 7 7 8 8 7 7 7 7 8 8 8 7 6 5 5
9 9 11 12 10 9 4 3 3 3 7 9 7 4 5 7 7 5 7 10 3 2 6 8 13 15 18 17 14 15 18 14 14 14 13 13 12 11 10 9 8 7 6 6 6 5 6 7 5 5 5 8 11 11 9 6 5 4 4 5 4 4 5 6 5 7 6 4 4 4 3 2 1 4 3 3 6 4 5 6 6 5 6 5 9 8 6 8 7 6 6 7 6 5 6 6 6
10 10 8 10 8 8 8 8 6 6 9 8 7 6 7 4 11 3 8 3 3 3 4 7 15 10 17 12 10 13 15 14 13 13 13 13 12 11 10 10 8 8 6 7 6 7 6 7 7 6 6 5 3 5 8 9 7 6 5 3 5 5 5 6 5 4 4 4 5 5 5 3 4 4 4 4 7 7 7 7 7 6 7 7 6 6 5 3 3 6 6 5 6 5 6 7 6
11 13 11 6 7 8 7 8 9 7 8 6 7 8 8 6 5 1 7 5 6 5 6 6 16 13 11 11 9 14 14 14 13 13 12 11 11 11 11 8 7 7 8 7 6 7 7 6 6 6 7 4 5 2 4 2 6 7 7 9 7 7 6 5 6 6 5 6 6 5 6 4 2 3 7 8 7 9 6 6 7 5 6 3 5 3 2 2 6 5 4 5 4 5 5 6 6
15 12 9 6 7 8 9 9 8 8 7 7 7 9 7 5 1 8 5 5 2 5 8 9 12 9 7 10 15 12 13 13 13 14 12 11 11 13 11 9 9 8 7 7 6 5 6 7 7 7 5 5 6 2 2 2 2 2 4 3 2 5 4 6 7 6 5 5 6 5 5 4 5 6 6 5 6 4 7 6 5 5 6 7 5 3 5 7 5 4 4 4 5 5 5 5 5
5 7 9 9 10 9 8 8 8 8 9 6 9 8 7 4 8 6 3 8 7 10 12 8 9 12 16 13 13 16 15 14 15 12 12 11 12 11 9 10 9 9 9 8 6 5 6 7 7 7 7 4 4 3 1 3 1 2 3 3 3 2 1 2 3 2 4 3 4 4 5 4 5 6 4 5 4 1 7 4 3 2 4 4 0 4 1 4 4 3 3 4 5 4 5 5 6
5 7 8 10 11 9 10 7 8 7 10 9 8 7 1 7 9 3 9 8 8 9 14 12 11 11 8 13 14 13 14 14 14 13 13 14 11 10 10 9 9 10 9 8 6 7 6 5 8 7 8 3 1 5 2 1 2 2 1 2 3 2 2 1 1 2 2 6 5 2 3 3 4 4 4 5 5 5 2 4 5 3 5 1 1 4 5 3 3 3 5 7 3 3 4 4 5
9 7 10 12 13 12 11 11 11 10 10 10 10 9 10 10 10 9 7 10 8 9 11 15 14 13 14 13 13 13 13 15 13 12 12 11 10 9 11 9 9 10 8 8 8 8 6 5 7 7 8 4 1 2 3 1 1 2 1 1 2 2 1 1 0 3 7 3 5 4 2 3 2 3 3 4 3 3 3 4 4 5 5 3 4 3 3 1 2 2 3 2 5 7 5 5 5
7 9 10 8 9 11 12 7 7 11 6 9 8 10 10 13 8 7 7 8 9 8 10 14 15 15 10 12 11 13 14 15 14 13 12 11 10 10 12 10 10 9 9 7 9 9 6 5 5 5 6 6 2 3 1 1 2 3 0 2 2 1 1 1 1 1 5 4 5 6 4 4 4 3 3 3 4 4 4 5 6 4 5 6 4 4 4 3 2 2 2 3 4 5 6 6 6
9 9 10 9 8 9 13 9 9 13 10 9 9 11 8 10 11 8 6 7 10 9 9 9 10 12 17 13 10 13 14 13 13 12 13 11 11 10 12 11 11 9 9 9 10 10 7 6 5 4 4 5 3 5 1 3 1 2 1 3 3 1 1 1 4 3 2 3 4 6 5 4 4 4 3 3 3 4 5 6 5 5 5 5 6 4 4 4 3 2 4 5 5 5 6 6 7
9 9 9 8 11 9 11 8 10 13 11 11 11 11 8 10 11 9 7 7 8 10 9 9 9 11 11 12 9 10 10 10 11 12 11 12 12 11 13 12 11 10 11 11 10 10 9 8 6 6 4 5 3 4 3 3 3 1 3 2 2 2 1 3 2 1 1 3 3 4 5 5 4 4 4 4 4 4 4 3 3 4 5 5 6 4 4 4 4 3 6 7 5 7 7 7 6
8 10 5 8 7 9 6 8 10 12 9 11 14 9 9 11 11 9 7 8 9 8 10 11 10 11 10 8 7 6 8 11 13 11 12 11 11 12 12 13 10 10 11 11 11 10 9 9 7 6 6 5 4 4 4 4 2 3 2 3 2 1 0 0 3 5 4 0 1 3 4 3 3 3 2 2 1 3 3 3 3 3 5 5 5 4 3 4 4 5 3 5 5 5 6 7 7
7 7 7 5 10 11 5 10 10 7 8 10 13 13 6 12 7 8 7 8 9 10 8 10 8 9 9 7 6 4 6 8 11 11 14 13 11 14 13 12 11 11 10 11 11 9 9 9 7 6 6 5 4 4 4 4 3 3 2 3 4 3 2 3 3 2 2 3 2 2 2 2 3 3 2 1 1 1 1 2 3 4 4 4 3 3 3 5 4 6 5 6 5 4 2 5 7
7 6 4 4 7 10 7 8 12 10 11 15 14 11 12 14 11 8 7 7 8 9 8 7 9 9 11 7 11 13 12 13 11 12 12 12 13 15 13 13 12 10 9 11 11 9 8 8 7 7 6 6 5 4 5 4 4 1 4 2 3 2 3 3 2 3 4 3 2 2 2 2 2 2 1 1 1 2 2 2 3 3 3 1 0 1 5 5 3 4 6 4 2 2 1 2 3
4 7 7 8 7 8 8 11 9 4 7 12 6 6 12 15 7 8 8 7 8 8 8 6 8 9 11 15 15 12 11 9 9 10 16 12 13 13 12 13 11 10 9 10 11 10 9 9 8 7 6 6 6 5 4 4 4 4 4 3 3 2 3 4 2 3 1 3 2 2 1 1 2 0 0 1 2 3 1 1 2 1 1 5 4 5 6 6 3 4 6 7 5 4 5 7 6
9 8 7 7 6 9 11 10 6 3 7 8 12 13 10 11 5 5 7 7 8 9 10 9 8 9 10 10 11 18 17 12 11 11 14 16 13 13 11 12 11 11 10 11 11 10 9 9 9 8 7 7 6 5 5 4 4 4 2 2 4 3 4 3 3 4 4 4 5 4 4 3 2 3 2 0 2 1 2 2 1 1 4 5 5 2 5 5 6 5 4 6 6 5 6 4 1
8 9 9 9 6 9 4 7 6 4 8 8 13 7 8 10 8 7 5 8 11 11 11 11 10 10 9 10 10 10 14 13 14 13 16 15 12 13 10 11 12 12 11 11 11 11 10 9 9 8 8 7 6 5 4 1 2 2 3 4 3 4 6 5 4 4 3 3 3 4 4 4 3 1 2 3 4 3 1 2 1 1 4 5 4 2 5 4 5 5 3 4 5 7 5 2 3
7 9 9 9 7 6 11 7 5 3 6 9 8 10 11 14 12 8 8 9 10 10 10 11 12 12 10 9 9 8 16 12 14 14 13 15 15 14 11 10 10 11 11 11 11 11 10 9 8 8 7 7 6 5 4 4 2 3 1 4 1 5 6 6 5 5 4 5 3 3 4 2 2 2 2 3 1 3 3 3 1 2 0 4 5 5 6 6 6 4 3 4 5 6 4 7 3
8 8 10 8 8 11 8 6 5 5 6 8 10 9 4 10 9 9 8 9 9 9 10 11 11 10 10 9 9 8 12 13 15 16 19 17 15 14 12 11 10 11 11 11 11 11 10 9 9 9 8 7 7 6 4 5 4 4 4 4 4 4 5 5 5 4 5 4 5 4 4 2 3 3 2 2 2 3 3 2 1 1 1 2 4 6 6 5 3 4 3 2 3 4 4 2 3
9 10 9 9 10 6 9 3 3 1 7 8 11 9 8 11 13 12 12 11 8 8 8 9 9 10 9 8 8 8 10 13 13 13 13 14 15 15 14 13 11 11 11 11 11 11 8 11 10 10 9 8 8 8 6 6 6 5 5 5 5 6 5 5 5 5 4 4 4 4 4 3 3 4 3 4 4 2 2 2 3 2 2 2 1 1 1 1 3 3 1 2 4 4 1 1 1
8 11 10 9 11 5 7 5 7 8 8 10 10 9 10 12 17 15 8 8 9 9 11 12 11 11 10 10 9 7 7 9 13 12 12 13 15 15 15 15 14 13 12 11 11 11 10 11 11 10 9 8 9 10 8 7 6 5 6 6 6 5 5 5 5 5 4 3 5 4 4 4 4 3 3 3 4 3 2 2 2 2 2 2 1 1 3 3 2 6 6 3 2 3 2 2 1
9 5 10 9 10 7 8 9 6 8 9 3 5 9 7 7 5 7 7 10 11 10 11 12 12 12 11 10 10 9 9 7 6 10 10 13 14 15 15 15 15 14 13 12 11 12 12 12 11 11 10 9 9 10 10 7 7 6 7 6 5 5 6 5 5 4 4 5 4 4 4 3 3 4 4 4 3 3 3 3 2 3 3 2 2 3 5 4 3 4 3 3 3 4 3 4 3
7 6 7 6 9 9 8 10 10 8 9 10 10 8 9 9 6 5 5 8 10 10 9 10 10 10 10 11 10 9 8 8 11 11 12 13 13 13 15 15 14 14 13 13 12 12 14 13 12 12 9 10 9 10 10 8 8 7 7 6 6 6 6 6 6 5 5 5 5 4 4 3 3 3 3 4 3 3 3 3 3 3 2 3 1 2 2 2 3 5 5 3 1 3 4 4 5
0 3 7 8 9 7 8 9 9 9 7 9 8 10 11 10 7 7 6 9 10 10 10 9 9 9 8 5 6 6 7 6 6 8 11 13 13 14 13 14 14 14 14 14 13 12 12 13 13 12 11 10 11 12 11 10 8 8 7 6 7 5 7 7 6 5 5 5 5 3 3 4 4 3 4 4 4 4 3 4 3 3 3 2 3 3 4 5 5 5 4 4 4 5 5 2 4
2 6 6 8 7 7 9 9 9 7 7 9 10 7 9 9 6 6 9 9 10 9 9 7 7 7 7 6 3 1 2 4 5 6 6 9 12 11 12 12 13 13 13 14 13 13 13 13 13 14 12 10 11 13 11 11 9 8 8 7 8 7 7 6 6 6 6 5 5 4 4 3 4 4 3 3 4 5 4 4 4 4 4 5 6 6 4 4 4 4 4 4 4 4 3 4 6
5 5 10 9 9 8 7 8 9 8 10 11 12 10 9 8 7 6 6 6 6 8 8 6 5 4 4 2 5 4 3 1 3 3 4 4 5 7 10 13 13 13 13 14 13 14 13 14 14 15 14 11 12 13 12 12 10 8 8 8 8 8 8 7 7 7 6 6 6 5 4 4 3 4 3 3 4 5 4 4 3 3 4 3 3 3 3 4 4 4 4 4 5 4 4 4 4
8 8 8 7 9 7 8 8 7 7 8 10 10 9 8 10 7 6 5 4 1 3 8 6 5 4 3 2 2 1 2 3 3 3 3 2 4 6 7 11 13 14 13 14 13 13 14 14 14 16 14 13 13 12 13 12 10 9 8 9 9 8 8 7 8 8 7 7 6 6 5 4 4 4 4 4 4 4 3 3 3 2 3 3 3 3 3 3 3 3 3 3 4 4 3 3 3
9 10 10 7 5 4 7 7 8 8 7 4 3 7 7 10 9 2 6 6 5 4 1 4 4 1 1 0 2 2 4 3 3 3 3 3 4 6 9 10 11 13 13 14 13 12 13 14 16 16 16 14 13 13 13 13 11 10 9 9 9 8 9 8 8 8 8 7 7 6 6 5 5 5 4 4 4 4 4 3 2 2 3 2 3 3 3 4 3 4 4 4 4 4 4 4 4
10 10 6 7 7 7 9 9 5 8 10 3 5 3 8 5 3 5 7 5 5 5 3 3 3 3 1 2 2 4 4 5 4 5 6 5 3 3 7 8 10 10 13 13 12 11 11 12 15 16 15 14 13 13 13 13 12 10 10 9 9 8 9 8 8 8 8 6 6 6 6 5 5 5 5 5 6 5 4 3 3 3 3 3 3 3 2 2 2 3 4 4 4 4 4 4 4
10 9 9 7 8 6 8 7 7 7 5 3 2 2 4 11 3 3 6 5 5 6 6 6 4 4 2 3 4 5 5 6 5 6 6 4 2 0 3 5 8 9 11 11 11 11 11 11 13 15 15 14 13 13 12 13 11 11 10 9 9 8 9 8 8 7 8 7 7 7 6 6 6 6 7 6 7 6 5 4 4 4 4 3 3 2 2 2 1 3 4 4 3 3 4 4 4
6 7 8 9 7 5 9 6 7 7 5 4 7 4 2 2 8 4 4 7 7 7 7 7 6 3 4 4 4 5 6 6 6 6 6 5 3 2 2 4 6 7 9 9 9 9 10 10 12 14 14 14 13 13 12 12 12 10 11 11 10 9 8 8 8 7 8 7 7 7 7 6 5 6 7 7 8 6 5 5 5 5 4 4 3 3 3 3 2 2 3 3 3 2 3 3 3
2 6 9 7 6 8 5 6 8 3 6 10 6 5 9 6 9 9 8 7 8 8 8 8 7 7 6 5 5 6 7 7 7 7 7 5 5 3 4 3 4 5 6 7 8 8 8 8 10 12 13 12 12 12 11 11 11 11 11 11 10 9 9 9 8 8 8 8 8 7 7 7 6 6 7 8 8 7 7 6 6 6 5 5 4 4 3 3 3 2 2 2 2 2 2 3 3
7 7 4 9 8 6 5 7 3 5 8 6 6 8 9 8 4 10 10 10 9 8 9 8 6 7 7 6 6 7 8 8 8 8 8 8 7 6 5 5 6 6 6 7 7 6 7 6 8 10 11 11 11 11 10 10 11 10 10 11 10 9 9 8 7 7 7 8 8 7 7 8 8 7 7 8 9 9 8 8 6 6 6 6 6 5 4 4 4 3 3 3 3 2 2 2 2
11 10 4 5 2 6 6 4 8 8 8 7 7 11 10 7 6 8 11 10 9 9 8 9 8 7 7 7 8 8 8 7 7 8 7 7 7 7 6 6 7 7 8 8 7 5 5 5 7 7 9 9 9 8 9 8 9 7 7 9 10 9 9 8 8 6 6 6 8 8 8 8 8 9 9 9 9 9 9 9 8 7 7 7 7 6 5 5 4 3 4 3 3 3 2 2 2
14 11 13 9 9 8 7 4 7 7 8 7 8 11 7 5 6 8 6 7 10 9 8 8 8 7 6 7 7 8 8 7 8 8 8 7 8 8 8 7 7 7 9 9 8 7 7 4 5 6 6 7 7 8 8 7 8 7 7 7 8 9 10 9 8 8 8 8 7 8 8 9 9 9 9 11 10 11 10 10 9 9 8 8 7 7 6 6 5 4 4 4 4 4 3 3 3
8 9 9 8 8 6 8 7 9 8 7 8 7 8 6 2 6 3 6 10 10 9 9 8 7 7 8 8 8 8 9 8 8 8 8 9 8 8 8 8 8 8 8 8 8 8 7 6 6 5 5 5 5 5 5 5 5 6 6 6 6 7 9 8 9 9 8 9 7 7 8 8 8 9 9 11 11 12 12 11 11 10 10 9 9 8 7 6 6 6 5 4 5 5 5 4 3
6 5 6 7 6 8 10 9 7 11 9 8 8 9 7 4 2 1 6 3 8 9 9 9 9 9 9 9 9 9 9 9 9 8 9 9 9 9 9 9 9 9 10 11 10 8 8 8 7 5 6 4 4 4 4 4 4 3 3 5 7 8 7 7 8 8 9 8 7 8 5 8 9 8 9 10 12 11 11 12 11 12 11 11 10 10 9 8 7 7 6 5 5 6 5 4 4
Wind_Direction
257 235 244 243 252 257 256 218 249 186 238 244 255 243 290 180 11 269 263 147 241 93 339 138 276 168 275 326 294 71 40 26 19 326 79 133 134 125 125 122 125 129 134 128 131 134 135 123 119 115 117 123 122 119 119 120 118 118 117 116 116 114 116 115 114 114 116 118 122 127 128 125 124 125 126 129 129 129 132 130 128 129 124 137 171 153 137 130 121 113 121 114 114 113 111 109 108
228 238 235 245 242 242 214 216 255 262 214 244 244 262 174 138 110 234 258 184 9 61 34 222 234 241 35 270 335 70 65 50 49 79 109 110 137 121 116 128 132 137 131 131 136 137 140 130 121 119 120 120 125 126 124 122 127 125 123 119 117 117 116 119 118 118 119 123 128 131 132 129 128 131 135 138 142 141 143 143 147 146 151 170 173 167 148 135 131 122 128 121 123 120 113 112 104
266 224 217 220 237 238 296 211 249 241 246 243 238 229 87 214 236 193 247 56 46 58 209 252 344 231 170 301 230 230 90 77 83 84 99 137 137 136 124 123 125 129 131 132 136 139 138 134 126 122 125 124 122 127 127 129 132 132 131 129 122 121 121 123 122 122 126 129 131 134 135 134 133 133 134 137 137 138 144 154 162 167 170 178 165 170 151 130 129 128 121 132 118 117 113 109 108
283 263 260 212 224 207 243 226 238 267 262 260 268 85 234 285 251 42 51 60 79 238 175 139 225 99 285 221 65 72 81 85 96 112 125 156 130 129 129 130 122 127 133 135 135 138 140 130 127 124 127 124 123 127 130 131 131 130 131 128 126 128 128 128 129 128 130 132 134 134 135 133 131 133 130 123 117 118 112 121 133 141 140 145 145 151 127 127 142 132 135 131 123 115 112 109 108
252 238 241 247 271 223 232 240 248 239 245 252 259 89 9 128 20 258 90 68 105 261 218 130 238 114 43 10 26 100 85 86 102 121 119 112 128 137 139 134 123 133 133 137 137 134 131 132 130 127 125 125 127 126 126 127 129 132 133 136 136 133 135 132 133 133 133 135 136 136 134 134 134 132 128 120 109 110 111 103 103 106 113 123 129 135 127 115 136 137 146 137 124 113 112 107 103
237 245 209 255 243 1 284 250 239 243 267 283 267 59 96 43 17 8 115 227 158 234 245 189 259 157 178 47 28 104 3 230 98 97 127 124 132 137 129 125 126 127 129 133 135 138 134 127 128 127 121 123 126 124 123 124 130 133 136 138 139 138 136 138 137 138 137 139 139 137 137 137 136 135 130 122 116 113 110 106 106 102 99 99 103 110 94 98 133 129 147 121 108 113 109 108 104
222 217 200 225 249 250 253 252 252 254 245 238 267 295 43 75 50 267 152 199 202 232 148 227 222 168 174 135 84 54 72 139 130 121 140 136 127 134 142 136 125 124 127 132 141 133 134 128 127 126 125 121 117 122 124 125 129 134 140 142 141 143 142 142 140 142 144 144 144 142 140 140 138 132 130 124 117 114 106 109 110 104 99 104 111 116 111 105 89 83 90 99 97 98 100 102 106
263 262 172 229 237 202 230 251 259 266 157 242 23 292 116 85 307 287 290 261 150 234 173 269 213 177 80 198 108 88 49 19 108 126 124 140 132 134 140 131 132 132 136 135 136 129 126 125 126 125 127 127 126 126 128 132 134 138 141 147 151 150 150 147 147 145 148 150 149 146 144 142 137 135 130 130 125 116 114 119 123 113 114 114 119 125 124 108 102 102 104 110 109 110 110 103 107
230 237 244 257 254 231 242 247 254 233 267 101 243 264 41 307 347 294 268 240 61 242 177 217 210 207 199 64 76 70 71 93 101 124 130 139 141 137 147 130 133 133 131 128 131 129 132 124 126 127 128 131 132 133 136 141 145 146 149 156 157 157 156 152 151 149 150 153 150 150 145 144 141 137 134 132 129 124 123 125 129 126 123 127 127 133 133 123 120 117 118 119 115 114 111 112 111
226 239 202 244 260 251 245 239 242 248 241 284 266 222 197 169 245 257 286 230 211 140 209 232 188 138 158 109 122 205 107 116 125 131 137 141 134 133 138 136 136 124 125 129 139 140 131 129 126 128 128 133 135 142 145 145 153 157 158 156 156 153 147 146 141 144 149 147 149 150 147 142 142 139 136 135 129 132 133 131 130 134 135 135 137 142 144 138 130 130 131 121 119 120 115 110 115
234 198 274 266 241 252 251 255 246 230 224 226 248 266 219 57 279 263 249 282 137 221 150 228 196 174 161 133 97 55 136 132 137 136 145 143 132 127 127 130 128 128 128 130 132 134 133 138 131 124 126 129 136 143 149 146 145 149 145 137 144 148 137 124 133 135 140 143 151 150 150 148 146 142 140 136 131 135 138 136 138 142 146 147 146 154 152 139 139 140 135 126 120 118 112 120 128
249 219 200 245 250 251 247 246 247 248 82 229 256 171 115 267 288 257 239 240 173 225 196 179 183 202 145 132 127 156 144 147 137 143 149 144 130 141 137 130 130 129 126 129 129 137 142 141 143 131 119 124 144 158 144 140 147 143 139 144 149 149 139 142 138 139 148 153 156 154 149 154 152 141 137 136 134 135 134 143 145 148 153 153 158 163 149 143 147 145 135 128 121 112 100 107 124
252 247 230 245 255 248 256 269 299 291 304 254 247 102 87 245 257 247 271 270 236 197 204 185 98 209 152 151 158 148 159 137 133 156 146 130 119 129 130 128 126 124 129 132 137 139 144 150 144 148 126 112 134 135 108 112 105 144 141 151 161 149 147 144 149 149 152 166 160 157 158 156 146 140 140 143 145 142 145 152 154 152 156 159 160 162 146 151 156 147 139 130 122 112 110 110 121
240 251 270 261 257 261 277 281 277 275 241 237 91 127 88 283 256 280 273 254 252 220 180 172 223 78 75 93 151 176 141 144 145 153 144 127 133 140 129 132 135 135 135 136 138 142 148 146 141 141 141 147 163 130 112 106 72 119 143 151 154 152 152 148 143 146 153 159 157 132 172 158 142 141 130 130 146 140 138 150 157 163 158 157 156 151 151 156 148 141 141 138 126 122 113 90 74
254 247 266 270 270 269 241 258 256 249 254 100 102 105 264 234 305 261 253 258 241 260 149 199 220 169 176 168 180 147 147 148 152 138 133 143 132 131 132 132 135 134 124 130 135 146 149 146 149 143 149 166 166 147 154 139 94 124 116 136 146 138 131 154 133 146 166 135 144 145 185 178 143 139 132 126 118 127 129 144 162 160 159 158 157 158 156 143 147 155 154 138 133 126 116 102 96
251 270 255 255 249 254 244 241 243 274 280 112 108 222 262 291 234 250 235 248 285 95 122 172 225 233 165 203 164 166 148 154 145 131 139 142 133 130 121 132 145 130 131 138 149 147 151 139 125 138 152 167 176 167 162 160 136 147 132 135 138 129 131 130 133 139 113 113 146 141 86 195 168 166 163 155 134 120 147 174 131 148 158 177 164 160 155 156 154 158 149 139 136 131 121 114 107
237 267 255 239 253 244 246 252 233 241 222 129 78 60 311 313 80 264 295 296 260 207 199 194 203 182 176 187 140 140 148 146 144 147 147 141 135 134 134 137 142 133 132 139 139 147 138 142 118 132 155 162 165 169 166 167 150 152 137 138 131 134 129 126 122 124 115 150 190 144 153 218 212 184 155 193 161 171 150 137 143 150 177 179 156 167 164 164 164 156 150 141 140 136 134 125 119
222 227 239 245 250 246 244 248 237 43 280 103 31 40 328 278 359 284 222 229 239 226 212 184 181 41 69 98 128 132 144 151 155 154 152 151 148 145 150 143 146 140 142 134 144 129 128 130 118 135 144 160 164 157 160 171 165 185 173 166 169 147 138 131 149 187 178 187 212 164 173 192 238 212 194 173 183 150 193 135 147 161 177 163 158 178 167 166 158 153 150 149 142 146 152 178 170
227 229 236 250 235 247 314 359 337 321 297 356 3 305 356 298 337 260 258 220 216 217 207 150 146 89 90 115 122 134 146 152 160 159 155 154 154 151 149 147 147 146 150 142 151 154 172 138 131 143 148 167 156 149 155 162 164 173 182 175 172 186 169 176 202 197 188 204 206 200 201 171 182 357 210 190 165 173 162 148 158 161 161 166 177 184 167 162 154 156 153 155 158 160 186 207 202
226 254 239 236 262 298 29 338 285 294 315 283 295 319 299 357 279 25 261 256 203 218 199 173 200 140 134 131 129 138 152 158 160 159 161 157 155 153 151 148 149 146 150 155 150 168 164 155 142 142 147 150 168 149 178 156 157 174 177 179 189 187 181 208 193 206 202 242 176 209 235 153 162 181 170 195 183 188 181 175 181 157 161 170 173 178 170 161 158 163 164 159 170 191 210 198 199
195 235 246 251 167 290 236 259 275 264 268 281 280 312 274 102 313 287 269 264 232 210 211 195 181 162 140 155 150 150 175 165 165 166 162 157 157 154 150 145 152 154 152 155 145 160 169 153 141 141 143 144 147 140 146 153 163 173 168 176 195 184 188 188 171 208 233 244 285 68 276 148 128 161 183 213 182 192 201 195 193 184 181 183 180 189 183 174 180 184 177 183 201 210 215 208 249
262 238 250 266 290 240 271 262 263 303 306 286 271 260 283 354 255 230 250 251 235 234 225 198 170 159 146 161 165 162 186 166 171 164 161 153 156 152 145 145 149 165 147 156 150 153 157 165 164 146 157 148 152 168 165 154 174 178 152 163 192 166 167 184 187 194 202 193 198 157 193 54 153 355 208 343 227 213 214 208 206 199 200 194 191 209 195 183 200 201 198 198 210 212 213 204 225
243 228 246 260 272 278 318 330 278 245 253 247 255 281 334 271 291 259 256 252 23 288 201 184 143 149 141 154 175 169 167 174 167 164 157 157 156 151 153 151 156 155 161 139 151 157 155 170 155 138 162 136 158 168 158 165 164 162 172 174 191 199 184 185 189 199 195 173 189 151 212 146 204 146 297 205 269 241 222 215 202 195 220 190 207 213 196 177 199 200 204 207 219 221 208 209 201
249 262 230 223 248 262 255 252 256 252 243 242 252 300 270 290 261 135 233 192 139 98 84 119 108 117 140 155 159 176 163 162 162 159 163 157 157 155 150 156 160 146 159 141 156 151 184 155 141 161 140 146 164 185 159 152 164 177 183 213 190 189 183 186 189 227 192 170 166 161 163 179 161 150 166 202 225 251 212 198 214 207 212 203 195 225 192 187 232 207 200 218 217 210 220 213 209
232 241 261 263 254 258 264 256 247 247 254 257 250 254 260 241 294 183 225 172 176 200 130 138 126 140 144 147 167 193 157 157 164 163 159 154 154 150 160 153 155 156 146 166 149 154 173 129 142 150 123 157 142 275 130 150 162 171 172 181 193 195 201 188 205 201 171 151 203 180 178 159 152 159 203 206 186 219 229 221 222 188 206 235 253 165 246 179 222 213 204 210 212 221 214 216 206
221 248 252 262 254 245 236 236 235 242 242 226 239 240 233 237 40 236 169 118 114 159 153 120 131 129 157 158 196 172 155 163 164 159 159 152 149 159 162 158 153 163 138 144 160 145 143 143 153 127 150 154 129 175 104 159 163 188 169 197 134 174 182 149 179 195 187 180 211 173 160 165 185 202 214 229 218 195 255 201 227 178 212 207 225 201 154 220 211 205 206 207 212 202 214 202 223
5 233 246 258 253 245 234 249 242 230 232 200 234 225 196 190 221 153 130 120 157 180 122 115 131 160 174 179 196 165 158 172 166 162 155 152 154 163 164 152 166 146 143 149 152 151 113 160 136 139 120 73 135 140 132 123 214 241 170 182 188 174 188 177 158 164 158 145 157 160 174 175 206 207 214 236 235 95 241 262 226 257 318 277 151 218 245 227 208 203 204 198 211 225 228 201 203
228 260 268 253 255 250 249 231 243 221 216 210 231 231 159 187 207 210 145 143 159 149 148 145 159 164 183 188 176 164 165 167 161 168 165 155 163 167 164 163 159 141 151 149 154 124 154 154 129 111 105 110 307 107 145 124 219 191 166 216 124 144 133 177 170 147 96 78 76 118 140 206 211 234 245 228 220 210 150 240 262 245 239 293 289 260 209 225 213 209 193 200 196 178 244 242 217
247 242 252 233 223 233 206 229 214 207 211 191 211 228 206 174 213 101 129 155 183 153 158 162 175 159 190 173 188 169 169 165 164 174 165 163 163 165 166 164 156 148 145 151 128 131 144 105 105 109 117 128 158 69 86 47 104 198 97 24 89 104 178 132 118 76 64 102 113 98 165 181 222 213 224 224 219 206 216 227 220 218 222 208 228 234 254 252 235 225 236 277 163 212 192 216 235
243 238 253 250 229 225 182 219 204 200 147 189 192 232 195 199 138 134 133 170 175 172 170 165 167 157 194 193 187 169 165 171 167 173 169 169 167 165 162 162 157 154 144 146 132 139 133 107 114 111 119 141 142 112 107 168 90 54 172 98 74 36 74 141 135 358 136 140 140 160 161 199 208 197 189 203 209 227 214 222 236 219 223 211 211 212 210 218 221 200 189 221 208 204 206 196 214
236 213 220 256 225 208 146 203 168 217 118 200 204 244 204 177 116 130 162 157 189 181 179 171 170 166 171 184 179 171 171 171 168 171 169 171 165 167 159 160 163 152 146 140 145 139 141 123 124 112 131 117 160 97 114 67 58 12 89 98 81 243 134 351 104 208 154 165 174 159 171 172 202 202 203 213 196 225 229 226 219 218 207 216 212 203 215 217 188 191 221 220 184 213 207 201 208
233 222 209 224 248 122 157 187 174 223 140 204 209 237 243 156 135 139 158 195 196 184 196 167 171 183 176 172 177 183 160 174 165 164 174 171 167 162 159 160 164 152 146 143 144 144 144 135 134 128 142 116 127 101 96 75 95 91 48 62 102 316 267 152 154 5 43 140 189 178 182 207 215 232 221 235 240 239 243 224 195 214 201 207 210 196 218 214 160 227 239 244 190 211 209 201 207
212 240 236 209 225 128 162 206 169 244 155 196 216 230 215 155 136 152 170 185 204 208 187 175 187 174 170 147 175 187 162 175 165 167 175 173 166 161 160 157 164 151 144 152 147 148 152 136 142 133 149 135 132 119 117 94 110 118 98 66 90 225 80 211 150 162 141 111 92 124 149 174 202 206 225 199 251 241 234 242 221 207 214 201 200 187 217 216 205 202 252 264 227 227 211 207 207
208 223 234 250 222 179 196 141 202 161 214 183 206 251 261 106 149 161 172 200 196 215 183 197 189 179 137 153 161 197 192 187 168 180 168 180 171 162 160 157 159 149 146 153 148 155 157 142 150 142 143 143 144 136 128 145 132 109 127 101 24 57 25 18 22 65 117 143 160 106 119 128 159 145 192 187 225 285 249 227 209 214 204 223 196 95 280 280 254 226 204 234 229 230 351 13 11
230 181 246 217 264 306 134 193 143 213 196 248 182 234 249 161 155 143 184 203 210 209 205 200 198 186 153 190 190 182 192 202 185 165 176 188 172 160 162 159 158 154 152 154 152 157 155 148 147 145 151 146 148 137 145 112 106 89 79 135 139 146 96 51 27 54 44 55 64 73 71 90 43 74 102 143 246 227 182 207 248 225 211 141 134 83 251 265 277 307 262 222 239 223 126 163 186
349 219 211 223 214 196 269 96 145 268 182 233 235 224 232 242 220 215 191 209 225 208 210 206 208 215 192 197 196 188 178 196 171 165 195 192 169 166 159 156 161 156 157 156 156 158 157 149 153 152 158 150 148 154 161 163 167 169 137 156 151 82 79 90 86 92 114 78 84 73 78 339 102 263 118 346 299 289 284 215 243 225 278 53 110 212 235 251 270 239 240 249 224 212 189 197 187
326 319 310 294 245 209 192 108 81 205 285 250 229 209 251 248 231 231 193 195 226 221 203 209 215 216 214 208 216 161 169 163 164 189 202 197 174 165 156 155 158 158 162 158 161 161 160 160 156 158 154 156 163 168 175 178 167 135 129 135 118 141 100 112 86 53 49 54 22 47 38 57 40 1 345 243 226 248 257 278 255 191 79 81 90 234 246 258 246 243 260 255 250 233 217 206 160
286 272 258 251 224 269 254 180 124 152 251 242 241 247 241 264 230 238 210 222 226 218 214 203 216 220 223 224 216 170 142 168 177 199 195 197 169 163 161 159 162 165 168 168 168 165 168 163 162 156 156 163 167 171 158 163 151 140 168 146 139 142 155 162 119 108 78 72 62 45 44 45 36 27 356 349 323 300 257 223 269 222 127 140 163 194 264 242 242 239 242 260 254 251 245 226 193
258 259 250 248 239 230 67 84 169 143 241 263 256 208 233 242 235 210 207 221 237 223 216 213 214 214 216 214 216 195 147 167 187 186 200 203 174 165 167 166 170 174 169 175 174 170 171 170 166 160 160 163 159 159 157 148 118 78 325 105 119 91 56 44 84 87 98 98 77 70 56 37 50 82 58 8 334 330 349 334 14 21 32 127 156 183 226 221 201 211 220 220 270 256 275 242 143
253 230 244 245 250 234 204 168 218 213 247 263 289 294 240 271 252 217 197 223 229 223 215 215 215 216 219 215 214 216 177 184 172 195 191 201 178 168 174 173 175 177 175 177 178 177 174 177 167 164 157 163 154 154 159 122 108 108 83 92 69 90 102 92 97 98 88 100 81 49 65 49 30 44 66 143 52 17 351 5 10 68 61 120 144 158 195 223 221 192 171 227 254 286 266 296 164
222 254 264 252 241 265 293 101 270 105 245 270 271 261 250 235 242 216 207 215 219 207 211 215 205 212 214 220 221 211 214 195 178 184 192 195 186 176 180 180 177 181 181 180 179 180 176 177 169 166 158 162 154 151 152 130 129 132 118 113 105 101 120 139 140 120 115 97 102 97 82 75 72 64 41 14 59 68 27 27 18 57 71 80 110 132 113 144 129 65 59 219 207 213 266 67 288
235 211 258 278 294 294 255 172 187 226 229 201 229 249 249 234 228 231 190 186 217 206 208 205 200 202 201 210 217 226 232 220 176 190 202 199 197 186 182 182 184 184 183 181 177 180 175 175 171 166 160 162 156 154 151 148 155 153 152 153 148 153 144 150 143 131 136 130 90 104 102 78 64 54 53 45 29 52 63 43 6 66 63 44 12 189 170 122 127 126 135 191 145 144 118 271 304
261 234 203 241 270 243 243 252 237 251 259 148 187 257 268 266 224 201 198 195 212 206 208 202 197 194 198 203 202 203 211 205 237 180 209 219 207 199 188 187 187 186 185 176 174 177 177 174 172 169 163 163 157 156 155 160 161 166 169 165 160 157 146 132 109 120 107 102 109 93 95 97 87 69 54 68 66 33 16 41 14 20 57 75 41 12 7 347 360 61 96 109 125 133 142 94 72
259 41 172 241 239 237 240 256 250 264 285 151 203 245 269 259 229 208 210 201 208 194 197 211 202 195 204 201 207 205 202 191 200 202 207 233 224 208 200 193 188 186 181 177 175 176 176 175 172 172 167 163 159 159 161 168 170 169 177 178 163 166 145 128 134 119 105 108 111 123 117 117 110 92 94 89 106 100 83 73 41 22 12 59 77 74 44 46 35 43 22 359 84 117 124 122 118
81 238 291 243 250 235 247 239 246 254 259 261 233 222 243 252 257 176 193 213 221 197 199 198 220 209 200 215 224 201 207 213 213 199 198 212 214 209 205 199 194 186 182 180 176 174 173 174 173 172 170 165 162 163 164 171 179 170 179 181 168 160 136 142 144 135 131 118 126 129 108 99 94 83 80 81 70 73 70 67 47 45 37 46 52 73 53 46 40 36 34 30 36 23 30 49 183
271 309 262 266 254 251 238 246 251 254 265 259 254 237 266 258 252 205 182 230 234 222 173 197 209 210 210 192 183 328 253 245 252 252 219 200 215 207 202 200 193 190 186 179 174 171 173 172 175 175 171 170 163 166 166 171 180 174 181 182 173 154 152 153 151 141 136 145 132 131 128 133 118 120 115 94 88 83 75 73 71 63 42 30 37 53 63 65 52 60 50 50 40 44 31 32 30
317 275 257 231 243 233 236 247 258 249 234 235 239 238 233 260 243 239 213 201 263 200 175 190 197 190 183 109 241 230 248 267 276 278 261 245 217 225 201 198 193 189 185 181 175 172 173 174 176 178 174 171 164 168 168 171 179 180 182 179 176 158 157 158 148 156 151 159 149 152 161 137 142 118 115 111 99 93 81 71 73 72 60 48 70 88 62 66 73 67 63 51 48 47 57 41 39
254 236 237 234 228 233 238 243 238 260 259 253 251 237 213 250 233 231 147 128 27 107 148 159 151 179 80 89 272 350 357 316 318 298 295 297 251 216 212 199 192 188 187 185 177 173 176 177 177 176 176 173 167 170 171 171 178 183 182 179 177 165 161 168 159 166 163 165 160 163 158 153 148 135 137 125 129 118 104 99 93 82 72 74 71 61 65 80 73 82 75 69 71 64 58 51 45
230 237 236 242 252 230 240 229 232 230 253 264 250 224 215 235 272 107 124 141 139 205 232 169 183 187 86 316 3 9 0 334 335 357 324 309 277 230 208 200 190 185 187 189 180 176 178 179 179 177 176 174 168 172 173 173 177 181 184 180 180 173 173 177 171 172 171 174 168 172 161 167 157 157 155 147 139 153 136 131 130 100 98 74 60 67 64 44 54 62 71 82 73 65 57 42 50
229 237 236 240 234 235 246 244 243 243 235 224 239 6 254 297 243 95 143 108 108 135 127 103 111 109 36 2 20 29 18 13 7 13 12 11 327 230 208 202 190 181 183 186 182 179 180 182 182 181 176 175 169 173 173 175 179 182 185 184 182 179 182 181 185 176 178 182 173 171 174 170 165 167 163 165 155 170 162 153 130 113 100 100 86 73 64 70 55 96 86 75 84 79 80 89 87
238 252 238 244 269 258 256 257 261 267 299 141 225 188 253 245 62 184 114 151 158 150 150 129 127 126 78 55 29 33 33 36 34 40 28 26 11 306 181 196 198 198 191 189 190 184 181 182 184 183 177 176 173 174 175 177 179 183 185 188 186 188 183 187 193 182 181 188 179 172 186 173 170 172 168 166 162 179 164 161 149 141 139 126 114 106 108 105 56 52 78 72 63 64 61 58 69
241 241 271 238 237 235 263 291 298 305 305 266 181 239 254 301 158 131 156 159 157 151 138 151 137 121 99 89 67 55 51 46 40 55 68 58 58 59 141 195 198 192 194 195 186 183 183 183 182 184 182 177 175 175 178 179 180 183 186 189 192 196 190 190 198 190 181 191 184 177 187 183 177 169 167 162 166 180 170 165 163 158 151 151 150 146 157 132 113 101 99 91 85 79 92 86 97
19 265 231 251 270 260 269 270 236 178 252 252 271 227 237 132 196 160 185 162 153 171 162 165 148 123 107 87 72 64 54 52 48 54 55 73 93 103 121 140 163 179 183 182 181 175 177 182 181 184 186 177 180 181 179 179 182 184 188 191 195 199 202 200 200 195 185 187 190 184 186 187 181 174 166 163 171 178 173 175 177 164 166 164 165 170 165 136 159 159 125 126 110 110 93 73 48
264 242 249 284 273 301 267 271 269 246 255 258 235 252 259 240 247 171 182 204 164 180 186 150 141 142 121 95 83 68 58 58 65 67 60 47 53 78 107 121 139 150 151 159 162 161 161 180 177 180 186 179 181 183 182 181 184 188 189 195 198 201 204 211 213 203 191 191 193 193 189 187 189 182 171 168 176 177 176 179 182 175 176 178 176 177 178 161 179 166 144 168 134 127 140 120 111
259 267 3 289 241 234 224 250 253 266 264 270 246 251 259 255 247 158 200 202 184 188 178 161 172 146 117 106 89 75 62 61 69 72 70 66 64 65 75 95 109 118 127 129 125 129 146 177 177 178 180 179 176 181 184 184 188 190 193 196 200 203 206 210 214 215 205 201 208 202 198 192 189 186 180 173 179 181 181 181 186 181 181 183 184 181 179 176 195 158 175 167 149 179 169 145 117
228 259 268 247 266 267 272 249 281 273 269 268 271 264 261 231 233 141 205 207 179 185 173 183 163 137 118 101 94 85 71 59 64 70 71 73 67 60 70 83 89 93 95 100 104 110 119 130 138 147 165 177 177 180 181 190 192 194 199 202 204 208 211 212 213 216 213 212 218 228 208 201 195 193 187 180 186 183 186 184 188 186 184 186 186 182 186 184 191 173 187 183 171 195 174 172 166
214 229 246 243 237 271 285 271 255 258 267 266 280 270 254 309 51 157 206 204 189 183 195 162 142 127 113 103 95 88 86 74 63 69 80 86 89 89 84 77 70 76 87 94 99 103 106 108 112 123 136 156 172 187 175 183 193 203 206 214 218 219 220 219 220 215 220 226 216 231 236 217 208 206 195 188 191 190 189 190 190 191 188 189 188 186 189 184 195 179 197 178 167 199 191 183 172
298 291 275 268 261 248 246 255 252 260 267 271 267 273 285 96 237 258 292 235 183 178 179 149 149 133 117 107 101 104 99 90 83 74 79 85 87 92 97 99 90 70 60 63 60 82 91 95 92 107 127 136 148 161 191 178 178 190 244 245 238 238 235 227 228 225 225 229 213 224 244 256 233 220 218 201 200 194 195 193 196 195 194 193 193 190 190 186 197 183 189 168 187 194 208 174 182